sat.trackr.live / text

‹ back to catalog

STARLINK-30239

NORAD 57291 · 2023-096B

PAYLOAD ACTIVE UNKNOWN

§ Identity

Operator
Country
US
Launch date
2023-07-10
Launch site
AFETR
Launch vehicle
Mass (kg)
RCS (m²)

Purposes: comms

External: N2YO · Heavens-Above · Gunter

§ Orbital elements

Epoch: 2026-05-25T00:43:09.126336Z

Period
94.27 min
Inclination
43.0011°
Eccentricity
0.0001561
Mean motion
15.27578689 rev/d
Perigee alt
482.0 km
Apogee alt
484.1 km
Semi-major
6,861.2 km
B*
3.5566e-5
RAAN
151.9645°
Arg perigee
267.6260°
Mean anomaly
92.4412°
Rev number
15,929

§ Raw data

STARLINK-302391 57291U 23096B   26145.02996674  .00000717  00000+0  35566-4 0  99982 57291  43.0011 151.9645 0001561 267.6260  92.4412 15.27578689159294

JSON: /api/v1/satellites/57291 · /tle

For live sub-satellite position, see the globe view (requires WebGL).

§ Visibility from observer

Set your observer location to see the next 7 days of passes ≥ 10°. The values pass through the URL so the page stays shareable.

No JS? Fill the form by hand. The geolocation button needs JavaScript.